Showing default

COSMOS 2168, 21782

Orbit data source: Space-Track

COSMOS 2168, 21782 is a payload satellite owned by UNKS RF (CIS) in LEO that was launched on Tue, 12 Nov 1991 UTC via a TSIKLON-3 launch vehicle from the Plesetsk Missile And Space Complex (PKMTR). Payload-class satellites include a variety of spacecraft equipped with specific instruments for various scientific and technological missions. These include communications satellites like Starlink; space stations such as the ISS; scientific satellites like the Hubble; Earth observation satellites from companies like Planet Labs, Umbra, and HawkEye 360; GPS; miniature CubeSats for education and research; and military/defense satellites.

Loading next visibility...
Identifier
21782, 1991-077D
Orbit
LEO
Country
Flag of CISCIS
Related business
Manufacturer
NPO PM
Mission
Defense Communications
Bus & Motor
STRELA-3, Unknown motor
Mass
225 kg wet, 225 kg dry
Launch date (UTC)
1991-11-12 (34 years ago)
Launch vehicle
TSIKLON-3
Launch site
Plesetsk Missile And Space Complex (PKMTR)
Object type
Payload
Rocket body
Debris
Shape & HBR
Cyl, 0.8 m
Radar Cross Section
1.257 m², Large (>1 m²)

Expand to show TLE details & history
Last TLE update: 19 hours ago

TLE from 19 hours ago
0 COSMOS 2168
1 21782U 91077D   26037.16091917  .00000038  00000-0  14603-3 0  9994
2 21782  82.5979 296.7900 0013261 327.3807 187.5049 12.65528322581226
Epoch: 2026-02-06T03:51Z
TLE epoch observation values (Epoch: 2026-02-06T03:51:43.416Z)
Latitude
24.93631°
Longitude
-80.88958°
Altitude
1,413.314 km
Speed
7.151 km/s
True Right ascension
07h 33m 22s
True Declination
24° 48' 58"
Sunlit
Object was in full shadow at epoch
Visualization orbit readout
Latitude
Unknown
Longitude
Unknown
Altitude
Unknown
Speed
Unknown
Apparent Right ascension
Unknown
Apparent Declination
Unknown
Sunlit
N/A
Visualization observer readout
Local Sidereal Time
00:48:11
Azimuth
Unknown
Elevation
Unknown
Doppler factor
Unknown
Orbital elements
Apogee altitude
1,407.836 km
Perigee altitude
1,387.213 km
Semi-major axis
7,775.661 km
Eccentricity
0.00133
Inclination
82.5979°
RAAN
296.79°
Arg. of periapsis
327.3807°
True anomaly
187.48508°
Mean anomaly
187.5049°
Eccentric anomaly
187.49499°
Mean motion
3.16546 °/min
Orbital period
113.73 mins
BSTAR
0.00014603
Loading maneuver chart data...
Computing Atmospheric mass density...
Loading historical data...
Loading historical data...
Loading historical data...
Loading historical data...
Loading historical data...
Loading historical data...
Loading historical data...

Documentation

Showing up to 5 results
|